ANZ101 NZAA-YSSY

Flight info

Callsign ANZ101
Flight time 2h 37m
Altitude 38000
Route VELMO DCT 38S163E DCT PLUGA DCT RIKNI N774 MARLN
Aircraft B772/H-SDE2E3FGHIJ5LORVWXY/LB1D1

Departure

Time 2026-04-22 17:41
Airport Auckland International Airport (NZAA)

Arrival

Time 2026-04-22 20:18
Airport Sydney Kingsford Smith International Airport (YSSY)
Time Latitude Longitude Altitude Speed Heading
2026-04-22 17:16 -37.00764 174.78877 39 ft 0 kts 71°
2026-04-22 17:28 -37.00765 174.78874 39 ft 2 kts 71°
2026-04-22 17:29 -37.00769 174.78856 38 ft 2 kts 95°
2026-04-22 17:29 -37.00764 174.78838 38 ft 2 kts 129°
2026-04-22 17:29 -37.00753 174.78827 38 ft 1 kts 158°
2026-04-22 17:29 -37.00748 174.78824 39 ft 1 kts 161°
2026-04-22 17:30 -37.00747 174.78824 39 ft 0 kts 161°
2026-04-22 17:32 -37.00753 174.78827 38 ft 4 kts 160°
2026-04-22 17:32 -37.00813 174.78854 37 ft 8 kts 159°
2026-04-22 17:32 -37.00869 174.78873 37 ft 9 kts 165°
2026-04-22 17:32 -37.00905 174.78886 37 ft 3 kts 163°
2026-04-22 17:33 -37.00919 174.78886 36 ft 3 kts 197°
2026-04-22 17:33 -37.00945 174.78853 36 ft 5 kts 241°
2026-04-22 17:33 -37.00966 174.78787 34 ft 11 kts 251°
2026-04-22 17:33 -37.01007 174.78642 31 ft 28 kts 250°
2026-04-22 17:34 -37.01079 174.78378 26 ft 32 kts 250°
2026-04-22 17:34 -37.01101 174.78299 29 ft 32 kts 251°
2026-04-22 17:35 -37.01102 174.78299 29 ft 32 kts 251°
2026-04-22 17:35 -37.01165 174.78067 38 ft 24 kts 250°
2026-04-22 17:35 -37.01224 174.77856 36 ft 27 kts 251°
2026-04-22 17:36 -37.01287 174.77628 36 ft 28 kts 251°
2026-04-22 17:36 -37.01353 174.77388 37 ft 30 kts 250°
2026-04-22 17:36 -37.01410 174.77181 35 ft 13 kts 250°
2026-04-22 17:36 -37.01427 174.77132 35 ft 2 kts 236°
2026-04-22 17:37 -37.01442 174.77116 36 ft 2 kts 208°
2026-04-22 17:37 -37.01470 174.77107 35 ft 5 kts 191°
2026-04-22 17:37 -37.01474 174.77106 35 ft 0 kts 191°
2026-04-22 17:38 -37.01480 174.77104 35 ft 4 kts 192°
2026-04-22 17:38 -37.01536 174.77090 34 ft 7 kts 191°
2026-04-22 17:38 -37.01576 174.77090 34 ft 3 kts 166°
2026-04-22 17:39 -37.01598 174.77098 34 ft 2 kts 161°
2026-04-22 17:39 -37.01611 174.77112 34 ft 2 kts 124°
2026-04-22 17:39 -37.01611 174.77147 34 ft 3 kts 75°
2026-04-22 17:40 -37.01606 174.77168 34 ft 0 kts 71°
2026-04-22 17:40 -37.01601 174.77187 34 ft 5 kts 71°
2026-04-22 17:40 -37.01558 174.77345 36 ft 49 kts 71°
2026-04-22 17:40 -37.01381 174.77983 41 ft 104 kts 70°
2026-04-22 17:41 -37.01090 174.79036 70 ft 149 kts 72°
2026-04-22 17:41 -37.00761 174.80200 648 ft 138 kts 73°
2026-04-22 17:41 -37.00446 174.81288 1145 ft 139 kts 72°
2026-04-22 17:41 -37.00078 174.82524 1236 ft 161 kts 75°
2026-04-22 17:42 -36.99697 174.83888 1578 ft 172 kts 75°
2026-04-22 17:42 -36.99287 174.85376 2533 ft 191 kts 75°
2026-04-22 17:42 -36.99009 174.86400 3326 ft 196 kts 74°
2026-04-22 17:42 -36.98416 174.88611 4779 ft 212 kts 76°
2026-04-22 17:43 -36.98305 174.90420 5821 ft 219 kts 106°
2026-04-22 17:43 -36.99068 174.92011 6898 ft 223 kts 142°
2026-04-22 17:43 -37.00446 174.92822 8100 ft 224 kts 162°
2026-04-22 17:43 -37.01852 174.93462 9197 ft 215 kts 159°
2026-04-22 17:44 -37.03281 174.94115 9676 ft 224 kts 167°
2026-04-22 17:44 -37.04860 174.94076 10060 ft 236 kts 199°
2026-04-22 17:44 -37.06193 174.92915 10682 ft 240 kts 232°
2026-04-22 17:44 -37.06818 174.91007 11357 ft 242 kts 258°
2026-04-22 17:45 -37.07137 174.88841 11601 ft 263 kts 255°
2026-04-22 17:45 -37.07587 174.86551 11814 ft 284 kts 256°
2026-04-22 17:45 -37.08031 174.84033 12122 ft 303 kts 256°
2026-04-22 17:45 -37.08501 174.81404 12538 ft 315 kts 256°
2026-04-22 17:46 -37.08967 174.78752 13309 ft 316 kts 256°
2026-04-22 17:46 -37.09466 174.76097 14143 ft 314 kts 252°
2026-04-22 17:46 -37.10391 174.73624 14805 ft 317 kts 239°
2026-04-22 17:46 -37.11488 174.71243 15491 ft 320 kts 242°
2026-04-22 17:47 -37.12529 174.68780 16206 ft 321 kts 242°
2026-04-22 17:47 -37.13584 174.66325 16842 ft 321 kts 242°
2026-04-22 17:47 -37.14632 174.63846 17418 ft 327 kts 242°
2026-04-22 17:47 -37.15700 174.61322 18134 ft 327 kts 242°
2026-04-22 17:48 -37.16404 174.59654 18594 ft 328 kts 242°
2026-04-22 17:48 -37.17821 174.56297 19412 ft 331 kts 243°
2026-04-22 17:48 -37.18895 174.53742 19948 ft 335 kts 243°
2026-04-22 17:48 -37.19986 174.51150 20537 ft 337 kts 243°
2026-04-22 17:49 -37.21079 174.48549 21152 ft 339 kts 243°
2026-04-22 17:49 -37.22170 174.45947 21744 ft 341 kts 244°
2026-04-22 17:49 -37.23273 174.43315 22321 ft 344 kts 244°
2026-04-22 17:49 -37.24395 174.40640 22908 ft 346 kts 244°
2026-04-22 17:50 -37.25503 174.37993 23534 ft 348 kts 244°
2026-04-22 17:50 -37.26635 174.35290 24160 ft 349 kts 244°
2026-04-22 17:50 -37.27763 174.32584 24741 ft 353 kts 245°
2026-04-22 17:50 -37.28898 174.29866 25351 ft 355 kts 245°
2026-04-22 17:51 -37.30048 174.27107 25956 ft 358 kts 245°
2026-04-22 17:51 -37.31195 174.24359 26555 ft 361 kts 245°
2026-04-22 17:51 -37.32367 174.21539 27127 ft 364 kts 246°
2026-04-22 17:51 -37.33374 174.18633 27626 ft 366 kts 252°
2026-04-22 17:52 -37.34255 174.15659 28162 ft 368 kts 251°
2026-04-22 17:52 -37.35191 174.12646 28631 ft 369 kts 251°
2026-04-22 17:52 -37.36103 174.09645 29090 ft 371 kts 251°
2026-04-22 17:52 -37.37032 174.06601 29546 ft 373 kts 251°
2026-04-22 17:53 -37.37952 174.03580 29998 ft 375 kts 251°
2026-04-22 17:53 -37.38891 174.00485 30436 ft 378 kts 251°
2026-04-22 17:53 -37.39831 173.97392 30859 ft 381 kts 251°
2026-04-22 17:53 -37.40770 173.94295 31232 ft 384 kts 251°
2026-04-22 17:54 -37.41724 173.91138 31595 ft 387 kts 251°
2026-04-22 17:54 -37.42672 173.88001 31932 ft 390 kts 251°
2026-04-22 17:54 -37.43652 173.84764 32248 ft 393 kts 251°
2026-04-22 17:54 -37.44633 173.81516 32559 ft 396 kts 251°
2026-04-22 17:55 -37.45285 173.79350 32753 ft 398 kts 251°
2026-04-22 17:55 -37.46607 173.74965 33148 ft 403 kts 251°
2026-04-22 17:55 -37.47602 173.71655 33480 ft 404 kts 251°
2026-04-22 17:55 -37.48602 173.68321 33850 ft 404 kts 251°
2026-04-22 17:56 -37.49593 173.65022 34281 ft 404 kts 251°
2026-04-22 17:56 -37.50590 173.61694 34662 ft 405 kts 251°
2026-04-22 17:56 -37.51586 173.58369 35028 ft 406 kts 251°
2026-04-22 17:56 -37.52577 173.55057 35364 ft 407 kts 251°
2026-04-22 17:57 -37.53569 173.51735 35722 ft 407 kts 251°
2026-04-22 17:57 -37.54568 173.48386 36038 ft 408 kts 251°
2026-04-22 17:57 -37.55565 173.45038 36325 ft 410 kts 251°
2026-04-22 17:57 -37.56567 173.41669 36565 ft 411 kts 251°
2026-04-22 17:58 -37.57583 173.38248 36831 ft 413 kts 251°
2026-04-22 17:58 -37.58593 173.34854 37091 ft 413 kts 251°
2026-04-22 17:58 -37.59604 173.31435 37325 ft 415 kts 251°
2026-04-22 17:58 -37.60609 173.28036 37543 ft 416 kts 251°
2026-04-22 17:59 -37.61623 173.24603 37741 ft 417 kts 251°
2026-04-22 17:59 -37.62658 173.21103 37954 ft 419 kts 251°
2026-04-22 17:59 -37.63685 173.17635 38164 ft 419 kts 251°
2026-04-22 17:59 -37.64687 173.14224 38273 ft 415 kts 251°
2026-04-22 18:00 -37.65356 173.11945 38258 ft 417 kts 251°
2026-04-22 18:00 -37.67737 173.03834 38272 ft 427 kts 251°
2026-04-22 18:01 -37.69802 172.96785 38250 ft 434 kts 251°
2026-04-22 18:01 -37.71912 172.89563 38238 ft 440 kts 251°
2026-04-22 18:02 -37.74048 172.82234 38218 ft 445 kts 251°
2026-04-22 18:02 -37.76198 172.74841 38219 ft 448 kts 251°
2026-04-22 18:03 -37.78339 172.67441 38227 ft 451 kts 251°
2026-04-22 18:03 -37.80493 172.59992 38228 ft 453 kts 251°
2026-04-22 18:04 -37.82670 172.52435 38228 ft 454 kts 251°
2026-04-22 18:04 -37.84813 172.44978 38233 ft 455 kts 251°
2026-04-22 18:05 -37.86994 172.37364 38227 ft 457 kts 250°
2026-04-22 18:05 -37.89156 172.29791 38238 ft 458 kts 251°
2026-04-22 18:06 -37.91318 172.22211 38239 ft 459 kts 251°
2026-04-22 18:06 -37.93486 172.14575 38245 ft 460 kts 251°
2026-04-22 18:07 -37.95292 172.08206 38236 ft 460 kts 251°
2026-04-22 18:07 -37.97802 171.99321 38244 ft 461 kts 251°
2026-04-22 18:08 -37.99947 171.91707 38243 ft 462 kts 251°
2026-04-22 18:08 -38.02108 171.84010 38257 ft 462 kts 251°
2026-04-22 18:09 -38.04258 171.76331 38235 ft 462 kts 251°
2026-04-22 18:09 -38.06404 171.68651 38236 ft 463 kts 251°
2026-04-22 18:10 -38.08541 171.60965 38261 ft 463 kts 251°
2026-04-22 18:10 -38.10679 171.53262 38250 ft 463 kts 251°
2026-04-22 18:11 -38.12837 171.45471 38252 ft 464 kts 250°
2026-04-22 18:11 -38.14970 171.37736 38250 ft 464 kts 250°
2026-04-22 18:12 -38.17095 171.30017 38256 ft 465 kts 251°
2026-04-22 18:12 -38.18863 171.23572 38257 ft 465 kts 251°
2026-04-22 18:13 -38.21361 171.14436 38261 ft 466 kts 251°
2026-04-22 18:13 -38.23499 171.06601 38273 ft 467 kts 251°
2026-04-22 18:14 -38.25617 170.98810 38278 ft 467 kts 251°
2026-04-22 18:14 -38.26978 170.90793 38255 ft 467 kts 266°
2026-04-22 18:15 -38.27103 170.82538 38262 ft 467 kts 268°
2026-04-22 18:15 -38.27128 170.74206 38264 ft 468 kts 269°
2026-04-22 18:16 -38.27115 170.65848 38260 ft 468 kts 269°
2026-04-22 18:16 -38.27094 170.57548 38260 ft 469 kts 269°
2026-04-22 18:17 -38.27060 170.49249 38263 ft 469 kts 269°
2026-04-22 18:17 -38.27023 170.40979 38260 ft 470 kts 269°
2026-04-22 18:18 -38.26979 170.32678 38259 ft 470 kts 270°
2026-04-22 18:18 -38.26928 170.24347 38266 ft 471 kts 269°
2026-04-22 18:19 -38.26873 170.16046 38264 ft 471 kts 270°
2026-04-22 18:19 -38.26812 170.07752 38262 ft 471 kts 270°
2026-04-22 18:20 -38.26743 169.99406 38267 ft 472 kts 270°
2026-04-22 18:20 -38.26670 169.91067 38268 ft 473 kts 269°
2026-04-22 18:21 -38.26590 169.82756 38261 ft 473 kts 269°
2026-04-22 18:21 -38.26504 169.74419 38264 ft 474 kts 269°
2026-04-22 18:22 -38.26413 169.66028 38265 ft 474 kts 269°
2026-04-22 18:22 -38.26316 169.57634 38261 ft 475 kts 269°
2026-04-22 18:23 -38.26211 169.49274 38266 ft 475 kts 269°
2026-04-22 18:23 -38.26101 169.40839 38263 ft 475 kts 269°
2026-04-22 18:24 -38.25927 169.28284 38267 ft 476 kts 270°
2026-04-22 18:25 -38.25737 169.15634 38274 ft 477 kts 270°
2026-04-22 18:25 -38.25600 169.07196 38267 ft 478 kts 270°
2026-04-22 18:26 -38.25386 168.94485 38277 ft 478 kts 270°
2026-04-22 18:26 -38.25236 168.85982 38270 ft 479 kts 270°
2026-04-22 18:27 -38.25079 168.77493 38263 ft 480 kts 270°
2026-04-22 18:27 -38.24915 168.68947 38274 ft 480 kts 270°
2026-04-22 18:28 -38.24746 168.60426 38283 ft 481 kts 270°
2026-04-22 18:28 -38.24569 168.51854 38278 ft 481 kts 270°
2026-04-22 18:29 -38.24386 168.43324 38288 ft 482 kts 270°
2026-04-22 18:29 -38.24197 168.34743 38270 ft 483 kts 270°
2026-04-22 18:30 -38.23901 168.21864 38289 ft 484 kts 270°
2026-04-22 18:31 -38.23696 168.13284 38281 ft 484 kts 270°
2026-04-22 18:31 -38.23481 168.04550 38300 ft 485 kts 270°
2026-04-22 18:32 -38.23298 167.97383 38278 ft 486 kts 270°
2026-04-22 18:32 -38.23038 167.87364 38289 ft 486 kts 270°
2026-04-22 18:33 -38.22809 167.78795 38288 ft 486 kts 270°
2026-04-22 18:33 -38.22570 167.70239 38292 ft 486 kts 270°
2026-04-22 18:34 -38.22327 167.61607 38287 ft 486 kts 270°
2026-04-22 18:34 -38.22078 167.53059 38284 ft 486 kts 270°
2026-04-22 18:35 -38.21820 167.44438 38290 ft 486 kts 270°
2026-04-22 18:35 -38.21559 167.35805 38287 ft 486 kts 270°
2026-04-22 18:36 -38.21289 167.27199 38287 ft 487 kts 271°
2026-04-22 18:36 -38.21016 167.18619 38287 ft 487 kts 271°
2026-04-22 18:37 -38.20736 167.10069 38287 ft 487 kts 271°
2026-04-22 18:37 -38.20498 167.02972 38282 ft 487 kts 271°
2026-04-22 18:38 -38.20156 166.92921 38290 ft 487 kts 271°
2026-04-22 18:38 -38.19855 166.84268 38293 ft 487 kts 271°
2026-04-22 18:39 -38.19392 166.71379 38290 ft 488 kts 271°
2026-04-22 18:39 -38.19080 166.62823 38286 ft 488 kts 271°
2026-04-22 18:40 -38.18756 166.54221 38285 ft 489 kts 271°
2026-04-22 18:40 -38.18430 166.45639 38289 ft 489 kts 271°
2026-04-22 18:41 -38.18092 166.36984 38289 ft 489 kts 271°
2026-04-22 18:41 -38.17747 166.28301 38286 ft 490 kts 272°
2026-04-22 18:42 -38.17399 166.19676 38283 ft 490 kts 272°
2026-04-22 18:42 -38.17045 166.11052 38290 ft 491 kts 272°
2026-04-22 18:43 -38.16683 166.02402 38288 ft 492 kts 272°
2026-04-22 18:43 -38.16313 165.93762 38284 ft 492 kts 272°
2026-04-22 18:44 -38.15940 165.85101 38282 ft 493 kts 272°
2026-04-22 18:44 -38.15558 165.76459 38282 ft 493 kts 272°
2026-04-22 18:45 -38.15167 165.67740 38285 ft 493 kts 272°
2026-04-22 18:45 -38.14771 165.59050 38283 ft 494 kts 272°
2026-04-22 18:46 -38.14366 165.50305 38287 ft 495 kts 272°
2026-04-22 18:46 -38.13952 165.41504 38287 ft 496 kts 272°
2026-04-22 18:47 -38.13533 165.32722 38289 ft 496 kts 272°
2026-04-22 18:47 -38.13104 165.23914 38281 ft 497 kts 272°
2026-04-22 18:48 -38.12667 165.15068 38279 ft 498 kts 272°
2026-04-22 18:48 -38.12231 165.06349 38285 ft 498 kts 272°
2026-04-22 18:49 -38.11786 164.97592 38285 ft 499 kts 272°
2026-04-22 18:49 -38.11333 164.88796 38283 ft 499 kts 272°
2026-04-22 18:50 -38.10873 164.80006 38294 ft 500 kts 272°
2026-04-22 18:50 -38.10405 164.71207 38289 ft 500 kts 272°
2026-04-22 18:51 -38.09932 164.62407 38285 ft 501 kts 272°
2026-04-22 18:51 -38.09451 164.53595 38286 ft 501 kts 272°
2026-04-22 18:52 -38.08961 164.44748 38290 ft 501 kts 272°
2026-04-22 18:52 -38.08469 164.35954 38291 ft 501 kts 272°
2026-04-22 18:53 -38.07971 164.27173 38282 ft 501 kts 273°
2026-04-22 18:53 -38.07465 164.18401 38288 ft 501 kts 273°
2026-04-22 18:54 -38.06949 164.09576 38284 ft 501 kts 273°
2026-04-22 18:54 -38.06429 164.00771 38284 ft 501 kts 273°
2026-04-22 18:55 -38.05906 163.92012 38282 ft 501 kts 273°
2026-04-22 18:55 -38.05368 163.83134 38290 ft 509 kts 273°
2026-04-22 18:56 -38.04819 163.74184 38282 ft 517 kts 273°
2026-04-22 18:56 -38.04250 163.65044 38293 ft 522 kts 273°
2026-04-22 18:57 -38.03675 163.55917 38284 ft 522 kts 273°
2026-04-22 18:57 -38.03092 163.46745 38288 ft 522 kts 273°
2026-04-22 18:58 -38.02504 163.37633 38294 ft 523 kts 273°
2026-04-22 18:58 -38.01905 163.28448 38281 ft 523 kts 274°
2026-04-22 18:59 -38.01294 163.19222 38273 ft 524 kts 274°
2026-04-22 18:59 -38.00676 163.09955 38286 ft 524 kts 274°
2026-04-22 19:00 -37.99798 163.00648 38281 ft 525 kts 282°
2026-04-22 19:00 -37.97863 162.91635 38283 ft 527 kts 286°
2026-04-22 19:01 -37.95707 162.82610 38298 ft 526 kts 287°
2026-04-22 19:01 -37.93535 162.73750 38280 ft 526 kts 287°
2026-04-22 19:02 -37.91362 162.64964 38297 ft 525 kts 287°
2026-04-22 19:02 -37.89161 162.56111 38292 ft 526 kts 287°
2026-04-22 19:03 -37.86973 162.47345 38291 ft 526 kts 287°
2026-04-22 19:03 -37.84766 162.38531 38288 ft 526 kts 287°
2026-04-22 19:04 -37.82553 162.29730 38289 ft 526 kts 287°
2026-04-22 19:04 -37.80328 162.20906 38278 ft 528 kts 288°
2026-04-22 19:05 -37.78102 162.12117 38287 ft 530 kts 287°
2026-04-22 19:05 -37.75848 162.03241 38281 ft 531 kts 287°
2026-04-22 19:06 -37.73587 161.94376 38285 ft 531 kts 287°
2026-04-22 19:07 -37.70190 161.81111 38278 ft 531 kts 287°
2026-04-22 19:07 -37.67926 161.72307 38294 ft 531 kts 287°
2026-04-22 19:08 -37.65651 161.63492 38279 ft 530 kts 287°
2026-04-22 19:08 -37.63365 161.54671 38292 ft 530 kts 287°
2026-04-22 19:09 -37.61068 161.45827 38291 ft 531 kts 287°
2026-04-22 19:09 -37.59166 161.38538 38316 ft 530 kts 287°
2026-04-22 19:10 -37.56476 161.28252 38301 ft 530 kts 288°
2026-04-22 19:10 -37.54166 161.19461 38287 ft 531 kts 288°
2026-04-22 19:11 -37.51841 161.10640 38285 ft 530 kts 288°
2026-04-22 19:11 -37.49520 161.01866 38296 ft 530 kts 288°
2026-04-22 19:12 -37.47202 160.93126 38290 ft 530 kts 288°
2026-04-22 19:12 -37.44858 160.84325 38292 ft 530 kts 288°
2026-04-22 19:13 -37.42525 160.75588 38286 ft 531 kts 288°
2026-04-22 19:13 -37.40171 160.66811 38292 ft 531 kts 288°
2026-04-22 19:14 -37.37812 160.58037 38310 ft 531 kts 288°
2026-04-22 19:14 -37.35450 160.49281 38289 ft 531 kts 287°
2026-04-22 19:15 -37.33469 160.41965 38264 ft 531 kts 287°
2026-04-22 19:15 -37.30704 160.31781 38264 ft 532 kts 288°
2026-04-22 19:16 -37.28315 160.23024 38322 ft 532 kts 288°
2026-04-22 19:16 -37.25916 160.14253 38310 ft 531 kts 288°
2026-04-22 19:17 -37.23528 160.05547 38285 ft 532 kts 288°
2026-04-22 19:17 -37.21122 159.96806 38291 ft 532 kts 288°
2026-04-22 19:18 -37.18708 159.88071 38298 ft 532 kts 288°
2026-04-22 19:18 -37.16277 159.79300 38296 ft 532 kts 288°
2026-04-22 19:19 -37.13858 159.70601 38299 ft 532 kts 288°
2026-04-22 19:19 -37.11427 159.61882 38284 ft 533 kts 288°
2026-04-22 19:20 -37.08990 159.53178 38307 ft 533 kts 288°
2026-04-22 19:20 -37.06526 159.44403 38319 ft 533 kts 287°
2026-04-22 19:21 -37.04070 159.35689 38311 ft 533 kts 287°
2026-04-22 19:21 -37.01608 159.26976 38330 ft 533 kts 288°
2026-04-22 19:22 -36.99146 159.18292 38308 ft 534 kts 288°
2026-04-22 19:22 -36.96656 159.09537 38323 ft 533 kts 288°
2026-04-22 19:23 -36.94178 159.00853 38316 ft 534 kts 288°
2026-04-22 19:23 -36.91690 158.92168 38315 ft 534 kts 288°
2026-04-22 19:24 -36.89191 158.83462 38285 ft 534 kts 288°
2026-04-22 19:24 -36.86678 158.74742 38307 ft 533 kts 288°
2026-04-22 19:25 -36.84171 158.66064 38292 ft 534 kts 288°
2026-04-22 19:25 -36.81652 158.57381 38286 ft 534 kts 288°
2026-04-22 19:26 -36.79125 158.48692 38320 ft 533 kts 288°
2026-04-22 19:26 -36.76602 158.40048 38296 ft 533 kts 287°
2026-04-22 19:27 -36.74062 158.31367 38262 ft 533 kts 288°
2026-04-22 19:27 -36.71520 158.22713 38312 ft 533 kts 288°
2026-04-22 19:28 -36.68969 158.14052 38296 ft 532 kts 288°
2026-04-22 19:28 -36.66411 158.05396 38289 ft 532 kts 288°
2026-04-22 19:29 -36.63858 157.96783 38307 ft 532 kts 288°
2026-04-22 19:29 -36.61306 157.88202 38292 ft 532 kts 288°
2026-04-22 19:30 -36.59587 157.82436 38332 ft 532 kts 288°
2026-04-22 19:30 -36.56168 157.70991 38296 ft 531 kts 288°
2026-04-22 19:31 -36.53598 157.62428 38287 ft 531 kts 288°
2026-04-22 19:31 -36.51026 157.53883 38280 ft 530 kts 288°
2026-04-22 19:32 -36.48439 157.45316 38296 ft 530 kts 288°
2026-04-22 19:32 -36.45855 157.36778 38303 ft 530 kts 288°
2026-04-22 19:33 -36.43260 157.28238 38306 ft 529 kts 288°
2026-04-22 19:33 -36.40673 157.19750 38304 ft 528 kts 288°
2026-04-22 19:34 -36.38075 157.11241 38298 ft 528 kts 288°
2026-04-22 19:34 -36.35477 157.02765 38290 ft 528 kts 288°
2026-04-22 19:35 -36.32867 156.94270 38305 ft 527 kts 288°
2026-04-22 19:35 -36.30696 156.87231 38306 ft 527 kts 288°
2026-04-22 19:36 -36.27653 156.77382 38311 ft 527 kts 288°
2026-04-22 19:36 -36.25034 156.68935 38313 ft 527 kts 288°
2026-04-22 19:37 -36.22393 156.60449 38301 ft 527 kts 288°
2026-04-22 19:37 -36.19776 156.52057 38298 ft 527 kts 288°
2026-04-22 19:38 -36.17131 156.43596 38311 ft 527 kts 288°
2026-04-22 19:38 -36.14487 156.35173 38323 ft 526 kts 288°
2026-04-22 19:39 -36.11841 156.26770 38307 ft 527 kts 288°
2026-04-22 19:39 -36.09183 156.18339 38314 ft 527 kts 288°
2026-04-22 19:40 -36.06524 156.09938 38309 ft 527 kts 288°
2026-04-22 19:40 -36.03841 156.01489 38297 ft 527 kts 288°
2026-04-22 19:41 -36.01174 155.93109 38305 ft 527 kts 288°
2026-04-22 19:41 -35.98506 155.84750 38324 ft 527 kts 288°
2026-04-22 19:42 -35.95799 155.76294 38312 ft 526 kts 288°
2026-04-22 19:42 -35.93118 155.67949 38309 ft 526 kts 288°
2026-04-22 19:43 -35.89074 155.55396 38318 ft 525 kts 288°
2026-04-22 19:43 -35.86371 155.47031 38305 ft 525 kts 287°
2026-04-22 19:44 -35.83680 155.38731 38319 ft 524 kts 288°
2026-04-22 19:44 -35.80981 155.30435 38311 ft 524 kts 288°
2026-04-22 19:45 -35.78270 155.22121 38317 ft 523 kts 288°
2026-04-22 19:45 -35.75564 155.13843 38315 ft 523 kts 288°
2026-04-22 19:46 -35.72837 155.05528 38296 ft 522 kts 288°
2026-04-22 19:46 -35.70123 154.97273 38327 ft 522 kts 288°
2026-04-22 19:47 -35.67405 154.89026 38308 ft 522 kts 288°
2026-04-22 19:47 -35.64686 154.80804 38314 ft 521 kts 288°
2026-04-22 19:48 -35.61869 154.72606 38325 ft 523 kts 292°
2026-04-22 19:48 -35.57817 154.65158 38297 ft 530 kts 304°
2026-04-22 19:49 -35.53165 154.58150 38298 ft 531 kts 306°
2026-04-22 19:49 -35.48419 154.51283 38318 ft 531 kts 306°
2026-04-22 19:50 -35.43599 154.44385 38316 ft 531 kts 306°
2026-04-22 19:50 -35.38783 154.37526 38327 ft 531 kts 306°
2026-04-22 19:51 -35.33979 154.30690 38337 ft 531 kts 307°
2026-04-22 19:51 -35.29154 154.23850 38319 ft 531 kts 307°
2026-04-22 19:52 -35.24340 154.17036 38329 ft 531 kts 307°
2026-04-22 19:52 -35.19505 154.10202 38333 ft 531 kts 307°
2026-04-22 19:53 -35.14664 154.03377 38326 ft 531 kts 306°
2026-04-22 19:53 -35.09843 153.96590 38305 ft 531 kts 306°
2026-04-22 19:54 -35.05010 153.89801 38325 ft 531 kts 306°
2026-04-22 19:54 -35.00171 153.83019 38333 ft 531 kts 306°
2026-04-22 19:55 -34.95338 153.76257 38331 ft 530 kts 306°
2026-04-22 19:55 -34.90499 153.69505 38332 ft 530 kts 306°
2026-04-22 19:56 -34.85651 153.62746 38320 ft 529 kts 306°
2026-04-22 19:56 -34.80818 153.56026 38324 ft 529 kts 306°
2026-04-22 19:57 -34.75986 153.49315 38308 ft 528 kts 306°
2026-04-22 19:57 -34.71140 153.42604 38305 ft 527 kts 306°
2026-04-22 19:58 -34.68733 153.39269 37733 ft 530 kts 306°
2026-04-22 19:58 -34.66333 153.35957 37083 ft 520 kts 306°
2026-04-22 19:58 -34.63942 153.32654 36451 ft 514 kts 306°
2026-04-22 19:58 -34.61634 153.29471 35996 ft 511 kts 306°
2026-04-22 19:59 -34.59301 153.26251 35499 ft 508 kts 306°
2026-04-22 20:00 -34.45424 153.07173 32853 ft 498 kts 308°
2026-04-22 20:00 -34.43146 153.04054 32522 ft 494 kts 308°
2026-04-22 20:01 -34.40865 153.00934 32222 ft 492 kts 308°
2026-04-22 20:01 -34.38599 152.97836 31940 ft 490 kts 308°
2026-04-22 20:01 -34.36333 152.94739 31616 ft 488 kts 308°
2026-04-22 20:01 -34.34095 152.91687 31295 ft 485 kts 309°
2026-04-22 20:02 -34.31887 152.88676 30992 ft 482 kts 309°
2026-04-22 20:02 -34.29654 152.85634 30696 ft 481 kts 309°
2026-04-22 20:02 -34.27443 152.82626 30367 ft 479 kts 309°
2026-04-22 20:02 -34.25255 152.79652 29953 ft 475 kts 309°
2026-04-22 20:03 -34.23047 152.76654 29526 ft 472 kts 309°
2026-04-22 20:03 -34.20879 152.73714 29112 ft 470 kts 309°
2026-04-22 20:03 -34.18710 152.70770 28737 ft 468 kts 309°
2026-04-22 20:03 -34.16535 152.67822 28360 ft 465 kts 309°
2026-04-22 20:04 -34.14417 152.64954 27997 ft 463 kts 309°
2026-04-22 20:04 -34.12280 152.62056 27646 ft 460 kts 308°
2026-04-22 20:04 -34.10346 152.59030 27277 ft 456 kts 301°
2026-04-22 20:04 -34.08782 152.55725 26899 ft 451 kts 291°
2026-04-22 20:05 -34.07721 152.52223 26517 ft 445 kts 281°
2026-04-22 20:05 -34.07177 152.48592 26142 ft 436 kts 271°
2026-04-22 20:05 -34.07005 152.44937 25788 ft 434 kts 269°
2026-04-22 20:05 -34.06720 152.41310 25442 ft 435 kts 271°
2026-04-22 20:06 -34.06421 152.37746 25029 ft 432 kts 271°
2026-04-22 20:06 -34.06092 152.34120 24589 ft 430 kts 272°
2026-04-22 20:06 -34.05761 152.30557 24126 ft 429 kts 272°
2026-04-22 20:06 -34.05426 152.27004 23539 ft 427 kts 272°
2026-04-22 20:07 -34.05087 152.23468 22928 ft 422 kts 272°
2026-04-22 20:07 -34.04760 152.20027 22302 ft 417 kts 273°
2026-04-22 20:07 -34.04424 152.16534 21654 ft 415 kts 273°
2026-04-22 20:07 -34.04095 152.13112 21025 ft 413 kts 273°
2026-04-22 20:08 -34.03765 152.09701 20373 ft 407 kts 273°
2026-04-22 20:08 -34.03439 152.06357 19702 ft 402 kts 274°
2026-04-22 20:08 -34.03103 152.02991 19005 ft 400 kts 274°
2026-04-22 20:08 -34.02772 151.99684 18344 ft 400 kts 274°
2026-04-22 20:09 -34.02444 151.96420 17678 ft 393 kts 274°
2026-04-22 20:09 -34.02114 151.93158 16974 ft 388 kts 275°
2026-04-22 20:09 -34.01792 151.89980 16245 ft 386 kts 275°
2026-04-22 20:09 -34.01470 151.86789 15478 ft 384 kts 275°
2026-04-22 20:10 -34.01150 151.83640 14708 ft 379 kts 275°
2026-04-22 20:10 -34.00830 151.80508 13921 ft 375 kts 276°
2026-04-22 20:10 -34.00287 151.77473 13080 ft 374 kts 288°
2026-04-22 20:10 -33.99197 151.74635 12234 ft 371 kts 296°
2026-04-22 20:11 -33.98064 151.71849 11437 ft 368 kts 295°
2026-04-22 20:11 -33.96957 151.69139 10654 ft 365 kts 296°
2026-04-22 20:11 -33.95840 151.66414 9666 ft 357 kts 296°
2026-04-22 20:11 -33.94768 151.63805 8495 ft 346 kts 296°
2026-04-22 20:12 -33.93729 151.61281 7893 ft 318 kts 296°
2026-04-22 20:12 -33.92813 151.59052 7895 ft 280 kts 296°
2026-04-22 20:12 -33.92260 151.57707 7895 ft 264 kts 296°
2026-04-22 20:12 -33.91107 151.54909 7967 ft 287 kts 296°
2026-04-22 20:13 -33.90245 151.52818 7887 ft 263 kts 296°
2026-04-22 20:13 -33.89482 151.50966 7890 ft 238 kts 296°
2026-04-22 20:13 -33.88720 151.49115 7737 ft 268 kts 296°
2026-04-22 20:13 -33.87928 151.47017 7289 ft 273 kts 285°
2026-04-22 20:14 -33.87735 151.44862 6969 ft 251 kts 257°
2026-04-22 20:14 -33.88165 151.42900 6656 ft 236 kts 250°
2026-04-22 20:14 -33.88565 151.41032 6310 ft 226 kts 252°
2026-04-22 20:14 -33.88963 151.39258 5924 ft 220 kts 250°
2026-04-22 20:15 -33.89378 151.37471 5337 ft 224 kts 251°
2026-04-22 20:15 -33.89804 151.35655 4760 ft 226 kts 251°
2026-04-22 20:15 -33.90229 151.33835 4168 ft 228 kts 252°
2026-04-22 20:15 -33.90646 151.32016 3540 ft 224 kts 251°
2026-04-22 20:16 -33.91053 151.30289 3044 ft 202 kts 251°
2026-04-22 20:16 -33.91405 151.28795 2880 ft 173 kts 250°
2026-04-22 20:16 -33.91740 151.27408 2300 ft 174 kts 251°
2026-04-22 20:16 -33.92079 151.26006 1571 ft 181 kts 251°
2026-04-22 20:17 -33.92421 151.24591 1036 ft 170 kts 253°
2026-04-22 20:17 -33.92723 151.23318 799 ft 148 kts 253°
2026-04-22 20:17 -33.92991 151.22189 602 ft 134 kts 254°
2026-04-22 20:17 -33.93273 151.21060 517 ft 151 kts 254°
2026-04-22 20:18 -33.93557 151.19832 274 ft 150 kts 255°
2026-04-22 20:18 -33.93828 151.18683 57 ft 136 kts 256°
2026-04-22 20:18 -33.94044 151.17761 34 ft 85 kts 255°
2026-04-22 20:18 -33.94151 151.17305 34 ft 32 kts 255°
2026-04-22 20:19 -33.94175 151.17207 34 ft 1 kts 254°
2026-04-22 20:19 -33.94188 151.17152 34 ft 11 kts 255°
2026-04-22 20:19 -33.94217 151.17027 34 ft 17 kts 253°
2026-04-22 20:19 -33.94238 151.16942 34 ft 7 kts 252°
2026-04-22 20:20 -33.94241 151.16908 34 ft 3 kts 279°
2026-04-22 20:20 -33.94230 151.16884 35 ft 3 kts 308°
2026-04-22 20:20 -33.94205 151.16861 35 ft 3 kts 332°
2026-04-22 20:20 -33.94170 151.16847 34 ft 6 kts 347°
2026-04-22 20:21 -33.94120 151.16832 34 ft 7 kts 345°
2026-04-22 20:21 -33.94089 151.16829 34 ft 3 kts 15°
2026-04-22 20:21 -33.94072 151.16843 34 ft 3 kts 43°
2026-04-22 20:21 -33.94069 151.16847 34 ft 4 kts 45°
2026-04-22 20:23 -33.94067 151.16849 34 ft 4 kts 46°
2026-04-22 20:23 -33.94051 151.16884 34 ft 5 kts 72°
2026-04-22 20:23 -33.94038 151.16940 34 ft 8 kts 74°
2026-04-22 20:24 -33.94030 151.16975 34 ft 10 kts 74°
2026-04-22 20:25 -33.94008 151.17070 34 ft 13 kts 75°
2026-04-22 20:25 -33.93986 151.17158 34 ft 8 kts 75°
2026-04-22 20:25 -33.93974 151.17197 34 ft 2 kts 51°
2026-04-22 20:25 -33.93953 151.17212 34 ft 5 kts 22°
2026-04-22 20:26 -33.93920 151.17210 34 ft 6 kts 349°
2026-04-22 20:26 -33.93851 151.17192 34 ft 15 kts 348°
2026-04-22 20:26 -33.93612 151.17131 34 ft 38 kts 349°
2026-04-22 20:26 -33.93467 151.17093 34 ft 13 kts 345°
2026-04-22 20:27 -33.93396 151.17075 34 ft 8 kts 346°
2026-04-22 20:27 -33.93338 151.17049 34 ft 9 kts 330°
2026-04-22 20:27 -33.93304 151.17013 35 ft 5 kts 309°
2026-04-22 20:27 -33.93286 151.16975 35 ft 5 kts 288°
2026-04-22 20:28 -33.93293 151.16937 34 ft 2 kts 240°
2026-04-22 20:28 -33.93314 151.16910 34 ft 5 kts 218°
2026-04-22 20:28 -33.93344 151.16890 34 ft 6 kts 202°
2026-04-22 20:28 -33.93369 151.16887 34 ft 3 kts 176°
2026-04-22 20:29 -33.93385 151.16878 34 ft 2 kts 238°
2026-04-22 20:29 -33.93391 151.16846 34 ft 5 kts 260°
2026-04-22 20:29 -33.93399 151.16795 34 ft 3 kts 258°
2026-04-22 20:29 -33.93403 151.16774 34 ft 0 kts 258°